| time (UTC) | temp F | wind direction | speed MPH | gust MPH | rain 1hr in | rain 24hr in | rain mn in | humidity % | barometer mb |
| 20260506033035 | 70 | 311 | 6.0 | 13.0 | 0.00 | 0.00 | 0.00 | 73 | 1010.0 |
| 20260506032019 | 70 | 345 | 5.0 | 9.0 | 0.00 | 0.00 | 0.00 | 72 | 1009.9 |
| 20260506031023 | 71 | 312 | 5.0 | 8.0 | 0.00 | 0.00 | 0.00 | 72 | 1009.8 |
| 20260506030027 | 72 | 331 | 6.0 | 13.0 | 0.00 | 0.00 | 0.00 | 72 | 1009.8 |
| 20260506025036 | 72 | 316 | 9.0 | 10.0 | 0.00 | 0.00 | 0.00 | 71 | 1009.5 |
| 20260506024017 | 73 | 293 | 9.0 | 13.0 | 0.00 | 0.00 | 0.00 | 71 | 1009.2 |
| 20260506023042 | 74 | 328 | 5.0 | 10.0 | 0.00 | 0.00 | 0.00 | 70 | 1008.9 |
| 20260506022025 | 74 | 3 | 6.0 | 10.0 | 0.00 | 0.00 | 0.00 | 70 | 1008.7 |
| 20260506021029 | 74 | 329 | 5.0 | 8.0 | 0.00 | 0.00 | 0.00 | 69 | 1008.3 |
| 20260506020016 | 75 | 329 | 6.0 | 10.0 | 0.00 | 0.00 | 0.00 | 69 | 1008.1 |
| 20260506015020 | 76 | 324 | 7.0 | 9.0 | 0.00 | 0.00 | 0.00 | 68 | 1007.8 |
| 20260506014023 | 77 | 326 | 6.0 | 8.0 | 0.00 | 0.00 | 0.00 | 67 | 1007.6 |
| 20260506013048 | 78 | 347 | 5.0 | 8.0 | 0.00 | 0.00 | 0.00 | 67 | 1007.5 |
| 20260506012058 | 78 | 349 | 5.0 | 8.0 | 0.00 | 0.00 | 0.00 | 66 | 1007.4 |
| 20260506011017 | 79 | 325 | 6.0 | 9.0 | 0.00 | 0.00 | 0.00 | 65 | 1007.5 |
| 20260506010022 | 80 | 342 | 5.0 | 7.0 | 0.00 | 0.00 | 0.00 | 64 | 1007.0 |
| 20260506005025 | 80 | 12 | 4.0 | 9.0 | 0.00 | 0.00 | 0.00 | 63 | 1007.2 |
| 20260506004030 | 81 | 320 | 5.0 | 7.0 | 0.00 | 0.00 | 0.00 | 63 | 1006.9 |
| 20260506003016 | 82 | 352 | 6.0 | 7.0 | 0.00 | 0.00 | 0.00 | 62 | 1006.9 |
| 20260506002045 | 83 | 356 | 4.0 | 6.0 | 0.00 | 0.00 | 0.00 | 63 | 1006.8 |
| 20260506001044 | 84 | 230 | 5.0 | 7.0 | 0.00 | 0.00 | 0.00 | 73 | 1006.6 |
| 20260506000028 | 84 | 211 | 5.0 | 7.0 | 0.00 | 0.00 | 0.00 | 74 | 1006.3 |
| 20260505235033 | 84 | 175 | 6.0 | 8.0 | 0.00 | 0.00 | 0.00 | 74 | 1006.1 |
| 20260505234019 | 84 | 166 | 5.0 | 7.0 | 0.00 | 0.00 | 0.00 | 73 | 1006.1 |
| 20260505233022 | 85 | 162 | 8.0 | 11.0 | 0.00 | 0.00 | 0.00 | 72 | 1005.8 |
| 20260505232026 | 86 | 173 | 8.0 | 12.0 | 0.00 | 0.00 | 0.00 | 71 | 1005.8 |
| 20260505231024 | 86 | 172 | 8.0 | 11.0 | 0.00 | 0.00 | 0.00 | 70 | 1005.9 |
| 20260505230016 | 87 | 171 | 8.0 | 12.0 | 0.00 | 0.00 | 0.00 | 68 | 1005.6 |
| 20260505225020 | 89 | 159 | 9.0 | 13.0 | 0.00 | 0.00 | 0.00 | 61 | 1005.6 |
| 20260505224018 | 89 | 179 | 7.0 | 10.0 | 0.00 | 0.00 | 0.00 | 61 | 1005.6 |
| 20260505223036 | 89 | 169 | 6.0 | 9.0 | 0.00 | 0.00 | 0.00 | 61 | 1005.4 |
| 20260505222032 | 89 | 159 | 6.0 | 9.0 | 0.00 | 0.00 | 0.00 | 61 | 1005.4 |
| 20260505221018 | 89 | 177 | 5.0 | 7.0 | 0.00 | 0.00 | 0.00 | 62 | 1005.4 |
| 20260505220022 | 89 | 170 | 5.0 | 8.0 | 0.00 | 0.00 | 0.00 | 60 | 1005.4 |
| 20260505215026 | 91 | 169 | 5.0 | 7.0 | 0.00 | 0.00 | 0.00 | 59 | 1005.4 |
| 20260505214030 | 90 | 163 | 5.0 | 6.0 | 0.00 | 0.00 | 0.00 | 57 | 1005.6 |
| 20260505213016 | 90 | 194 | 5.0 | 11.0 | 0.00 | 0.00 | 0.00 | 58 | 1005.6 |
| 20260505212019 | 90 | 219 | 4.0 | 7.0 | 0.00 | 0.00 | 0.00 | 57 | 1005.7 |
| 20260505211029 | 89 | 190 | 5.0 | 10.0 | 0.00 | 0.00 | 0.00 | 59 | 1005.9 |
| 20260505210028 | 89 | 194 | 9.0 | 12.0 | 0.00 | 0.00 | 0.00 | 59 | 1006.1 |
| 20260505205032 | 89 | 179 | 6.0 | 10.0 | 0.00 | 0.00 | 0.00 | 59 | 1005.9 |
| 20260505204018 | 87 | 179 | 6.0 | 9.0 | 0.00 | 0.00 | 0.00 | 63 | 1006.5 |
| 20260505203022 | 89 | 195 | 7.0 | 10.0 | 0.00 | 0.00 | 0.00 | 61 | 1006.5 |
| 20260505202047 | 88 | 199 | 7.0 | 9.0 | 0.00 | 0.00 | 0.00 | 62 | 1006.5 |
| 20260505201055 | 88 | 216 | 8.0 | 12.0 | 0.00 | 0.00 | 0.00 | 61 | 1006.6 |
| 20260505200036 | 89 | 213 | 9.0 | 12.0 | 0.00 | 0.00 | 0.00 | 61 | 1006.6 |
| 20260505195100 | 87 | 188 | 10.0 | 16.0 | 0.00 | 0.00 | 0.00 | 61 | 1006.6 |
| 20260505194023 | 87 | 218 | 9.0 | 16.0 | 0.00 | 0.00 | 0.00 | 63 | 1006.8 |
| 20260505193027 | 87 | 201 | 9.0 | 12.0 | 0.00 | 0.00 | 0.00 | 66 | 1006.7 |
| 20260505192031 | 86 | 162 | 9.0 | 13.0 | 0.00 | 0.00 | 0.00 | 67 | 1006.7 |
| 20260505191042 | 85 | 186 | 10.0 | 14.0 | 0.00 | 0.00 | 0.00 | 68 | 1006.9 |
| 20260505190021 | 85 | 176 | 10.0 | 13.0 | 0.00 | 0.00 | 0.00 | 68 | 1007.0 |
| 20260505185025 | 85 | 183 | 7.0 | 11.0 | 0.00 | 0.00 | 0.00 | 69 | 1007.2 |
| 20260505184030 | 84 | 185 | 10.0 | 13.0 | 0.00 | 0.00 | 0.00 | 70 | 1007.3 |
| 20260505183015 | 84 | 183 | 10.0 | 12.0 | 0.00 | 0.00 | 0.00 | 69 | 1007.3 |
| 20260505182020 | 84 | 195 | 10.0 | 13.0 | 0.00 | 0.00 | 0.00 | 70 | 1007.3 |
| 20260505181024 | 83 | 202 | 10.0 | 13.0 | 0.00 | 0.00 | 0.00 | 70 | 1007.3 |
| 20260505180021 | 83 | 173 | 10.0 | 12.0 | 0.00 | 0.00 | 0.00 | 72 | 1007.3 |
| 20260505175019 | 83 | 197 | 9.0 | 12.0 | 0.00 | 0.00 | 0.00 | 71 | 1007.4 |
| 20260505174042 | 82 | 187 | 10.0 | 15.0 | 0.00 | 0.00 | 0.00 | 73 | 1007.5 |
| 20260505173015 | 81 | 216 | 7.0 | 11.0 | 0.00 | 0.00 | 0.00 | 74 | 1007.4 |
| 20260505172025 | 81 | 182 | 9.0 | 12.0 | 0.00 | 0.00 | 0.00 | 74 | 1007.5 |
| 20260505171030 | 81 | 196 | 10.0 | 13.0 | 0.00 | 0.00 | 0.00 | 74 | 1007.6 |
| 20260505170016 | 81 | 191 | 8.0 | 12.0 | 0.00 | 0.00 | 0.00 | 74 | 1007.5 |
| 20260505165019 | 81 | 190 | 11.0 | 17.0 | 0.00 | 0.00 | 0.00 | 74 | 1007.2 |
| 20260505164023 | 81 | 194 | 11.0 | 19.0 | 0.00 | 0.00 | 0.00 | 74 | 1007.2 |
| 20260505163048 | 80 | 178 | 12.0 | 19.0 | 0.00 | 0.00 | 0.00 | 76 | 1007.1 |
| 20260505162032 | 79 | 181 | 12.0 | 18.0 | 0.00 | 0.00 | 0.00 | 77 | 1007.2 |
| 20260505161118 | 79 | 184 | 14.0 | 18.0 | 0.00 | 0.00 | 0.00 | 78 | 1007.4 |
| 20260505153015 | 76 | 194 | 14.0 | 19.0 | 0.00 | 0.00 | 0.00 | 82 | 1007.4 |
| 20260505152020 | 77 | 186 | 11.0 | 15.0 | 0.00 | 0.00 | 0.00 | 81 | 1007.4 |
| 20260505151024 | 77 | 178 | 10.0 | 18.0 | 0.00 | 0.00 | 0.00 | 81 | 1007.4 |
| 20260505150107 | 76 | 185 | 12.0 | 19.0 | 0.00 | 0.00 | 0.00 | 83 | 1007.1 |
| 20260505124019 | 70 | 192 | 9.0 | 13.0 | 0.00 | 0.00 | 0.00 | 94 | 1006.6 |
| 20260505123017 | 69 | 180 | 9.0 | 10.0 | 0.00 | 0.00 | 0.00 | 94 | 1006.6 |
| 20260505122020 | 69 | 199 | 8.0 | 13.0 | 0.00 | 0.00 | 0.00 | 95 | 1006.4 |
| 20260505121026 | 69 | 174 | 9.0 | 12.0 | 0.00 | 0.00 | 0.00 | 95 | 1006.1 |
| 20260505120029 | 69 | 177 | 9.0 | 12.0 | 0.00 | 0.00 | 0.00 | 95 | 1006.4 |
| 20260505115020 | 69 | 185 | 10.0 | 13.0 | 0.00 | 0.00 | 0.00 | 95 | 1006.1 |
| 20260505114019 | 69 | 188 | 9.0 | 12.0 | 0.00 | 0.00 | 0.00 | 95 | 1006.3 |
| 20260505113023 | 69 | 177 | 6.0 | 8.0 | 0.00 | 0.00 | 0.00 | 94 | 1006.2 |
| 20260505112027 | 69 | 176 | 10.0 | 14.0 | 0.00 | 0.00 | 0.00 | 94 | 1006.1 |
| 20260505111031 | 69 | 183 | 9.0 | 15.0 | 0.00 | 0.00 | 0.00 | 94 | 1005.9 |
| 20260505102035 | 70 | 174 | 9.0 | 12.0 | 0.00 | 0.00 | 0.00 | 92 | 1006.1 |
| 20260505101030 | 70 | 179 | 8.0 | 10.0 | 0.00 | 0.00 | 0.00 | 91 | 1006.1 |
| 20260505100024 | 70 | 175 | 11.0 | 13.0 | 0.00 | 0.00 | 0.00 | 91 | 1006.1 |
| 20260505095028 | 71 | 182 | 10.0 | 12.0 | 0.00 | 0.00 | 0.00 | 91 | 1006.4 |
| 20260505094032 | 71 | 180 | 11.0 | 16.0 | 0.00 | 0.00 | 0.00 | 91 | 1006.3 |
| 20260505093018 | 70 | 178 | 11.0 | 18.0 | 0.00 | 0.00 | 0.00 | 91 | 1006.4 |
| 20260505092022 | 70 | 169 | 10.0 | 15.0 | 0.00 | 0.00 | 0.00 | 92 | 1006.5 |
| 20260505091047 | 70 | 175 | 11.0 | 18.0 | 0.00 | 0.00 | 0.00 | 92 | 1006.5 |
| 20260505090030 | 70 | 189 | 10.0 | 13.0 | 0.00 | 0.00 | 0.00 | 92 | 1006.4 |
| 20260505085016 | 70 | 191 | 9.0 | 16.0 | 0.00 | 0.00 | 0.00 | 91 | 1006.5 |
| 20260505084020 | 70 | 189 | 10.0 | 15.0 | 0.00 | 0.00 | 0.00 | 91 | 1006.4 |
| 20260505083024 | 70 | 181 | 12.0 | 17.0 | 0.00 | 0.00 | 0.00 | 91 | 1006.4 |
| 20260505082028 | 70 | 170 | 13.0 | 18.0 | 0.00 | 0.00 | 0.00 | 91 | 1006.5 |
| 20260505081027 | 70 | 174 | 10.0 | 15.0 | 0.00 | 0.00 | 0.00 | 90 | 1006.6 |
| 20260505080018 | 70 | 174 | 11.0 | 17.0 | 0.00 | 0.00 | 0.00 | 90 | 1006.8 |
| 20260505075023 | 71 | 177 | 13.0 | 20.0 | 0.00 | 0.00 | 0.00 | 89 | 1006.9 |
| 20260505074041 | 71 | 180 | 11.0 | 15.0 | 0.00 | 0.00 | 0.00 | 89 | 1007.1 |
| 20260505073019 | 71 | 186 | 11.0 | 15.0 | 0.00 | 0.00 | 0.00 | 88 | 1007.3 |
| 20260505072017 | 71 | 168 | 10.0 | 13.0 | 0.00 | 0.00 | 0.00 | 88 | 1007.4 |
| 20260505071015 | 71 | 177 | 11.0 | 16.0 | 0.00 | 0.00 | 0.00 | 87 | 1007.5 |
| 20260505070025 | 71 | 179 | 11.0 | 13.0 | 0.00 | 0.00 | 0.00 | 87 | 1007.6 |
| 20260505065110 | 71 | 183 | 9.0 | 16.0 | 0.00 | 0.00 | 0.00 | 86 | 1007.8 |
| 20260505064015 | 72 | 168 | 12.0 | 16.0 | 0.00 | 0.00 | 0.00 | 86 | 1007.9 |
| 20260505063040 | 72 | 183 | 10.0 | 12.0 | 0.00 | 0.00 | 0.00 | 85 | 1008.0 |
| 20260505062024 | 72 | 173 | 8.0 | 12.0 | 0.00 | 0.00 | 0.00 | 84 | 1008.0 |
| 20260505061027 | 72 | 169 | 10.0 | 14.0 | 0.00 | 0.00 | 0.00 | 83 | 1007.9 |
| 20260505060032 | 72 | 167 | 11.0 | 16.0 | 0.00 | 0.00 | 0.00 | 82 | 1007.7 |
| 20260505055018 | 72 | 173 | 12.0 | 16.0 | 0.00 | 0.00 | 0.00 | 81 | 1007.8 |
| 20260505054022 | 73 | 181 | 12.0 | 20.0 | 0.00 | 0.00 | 0.00 | 80 | 1007.8 |
| 20260505053026 | 73 | 177 | 12.0 | 16.0 | 0.00 | 0.00 | 0.00 | 79 | 1007.9 |
| 20260505052030 | 73 | 169 | 12.0 | 15.0 | 0.00 | 0.00 | 0.00 | 78 | 1008.0 |
| 20260505051016 | 73 | 176 | 10.0 | 13.0 | 0.00 | 0.00 | 0.00 | 78 | 1008.2 |
| 20260505041015 | 74 | 170 | 11.0 | 17.0 | 0.00 | 0.00 | 0.00 | 76 | 1008.3 |
| 20260505040031 | 74 | 169 | 10.0 | 14.0 | 0.00 | 0.00 | 0.00 | 76 | 1008.4 |
| 20260505035017 | 74 | 165 | 9.0 | 13.0 | 0.00 | 0.00 | 0.00 | 76 | 1008.2 |
| 20260505034021 | 74 | 143 | 8.0 | 10.0 | 0.00 | 0.00 | 0.00 | 76 | 1008.2 |